Flag for U.S.A. Weather past 2 weeks in Barnstable, Massachusetts, U.S.A.

Now
68 °F

Fog.


Feels Like: 68 °F
Forecast: 55 / 74 °F
Wind: No wind

Location: Barnstable Municipal-Boardman Airport

Current Time: Sep 21, 2014 at 9:13:46 PM

Latest Report: Sep 21, 2014 at 7:56 PM


Visibility: 6 mi

Pressure: 29.61 "Hg

Humidity: 93%

Dew point: 66 °F

Location of BarnstableLocation

Historic Weather in Barnstable — Graph

°F

Barnstable temperature yesterday

Maximum temperature yesterday: 68 °F (at 1:56 PM)
Minimum temperature yesterday: 38 °F (at 12:56 AM)
Average temperature yesterday: 57 °F

Past Weeks' High & Low Weather Summary

 TemperatureHumidityPressure
High76 °F (Sep 6, 7:56 PM)94% (Sep 6, 10:56 PM)30.43 "Hg (Sep 6, 10:56 PM)
Low38 °F (Sep 20, 12:56 AM)38% (Sep 18, 2:56 PM)29.61 "Hg (Sep 21, 7:56 PM)
Average62 °F75%30.10 "Hg
* Reported Sep 6 7:56 PM — Sep 21 7:56 PM, Barnstable, Weather by CustomWeather, © 2014

Note: Actual official high and low records may vary slightly from our data, if they occured in-between our weather recording intervals... More about our weather records

Advertising

Barnstable weather history for previous 24 hours

 ConditionsComfort  
Time TempWeatherWind HumidityBarometerVisibility
7:56 PM
Sep 21
68 °FFog.No wind93%29.61 "Hg6 mi
7:03 PM68 °FLight rain. Fog.6 mph93%29.62 "Hg4 mi
6:56 PM68 °FLight rain. Fog.6 mph93%29.62 "Hg2 mi
5:56 PM69 °FFog.5 mph93%29.65 "Hg2 mi
5:03 PM69 °FFog.6 mph93%29.68 "Hg2 mi
3:56 PM70 °FFog.5 mph93%29.72 "Hg1 mi
2:56 PM71 °FFog.8 mph90%29.75 "Hg4 mi
1:59 PM71 °FLow clouds.8 mph90%29.79 "Hg10 mi
12:56 PM73 °FPartly sunny.10 mph88%29.83 "Hg10 mi
11:56 AM74 °FPassing clouds.8 mph82%29.88 "Hg10 mi
10:56 AM73 °FPartly sunny.5 mph81%29.92 "Hg10 mi
9:56 AM72 °FSunny.7 mph78%29.94 "Hg10 mi
8:56 AM71 °FMostly cloudy.8 mph84%29.96 "Hg10 mi
7:56 AM70 °FPartly sunny.6 mph87%29.96 "Hg10 mi
6:56 AM68 °FPassing clouds.3 mph90%29.98 "Hg10 mi
5:56 AM68 °FOvercast.6 mph90%29.98 "Hg10 mi
4:56 AM67 °FMostly cloudy.5 mph90%30.00 "Hg10 mi
3:56 AM65 °FClear.5 mph87%30.02 "Hg10 mi
2:56 AM66 °FOvercast.5 mph84%30.04 "Hg10 mi
1:56 AM65 °FOvercast.5 mph87%30.07 "Hg10 mi
12:56 AM66 °FOvercast.5 mph81%30.10 "Hg10 mi
11:56 PM
Sep 20
66 °FOvercast.5 mph81%30.12 "Hg10 mi
10:56 PM67 °FOvercast.3 mph79%30.14 "Hg10 mi
9:56 PM65 °FPassing clouds.5 mph85%30.16 "Hg10 mi
Weather by CustomWeather, © 2014

See weather overviewHow to use our weather pages